| time (UTC) | temp F | wind direction | speed MPH | gust MPH | rain 1hr in | rain 24hr in | rain mn in | humidity % | barometer mb |
| 20260505181104 | 83 | 170 | 2.0 | 10.0 | 0.00 | 0.00 | 0.00 | 39 | 1009.2 |
| 20260505180605 | 83 | 128 | 5.0 | 14.0 | 0.00 | 0.00 | 0.00 | 38 | 1009.3 |
| 20260505180105 | 83 | 146 | 4.0 | 10.0 | 0.00 | 0.00 | 0.00 | 37 | 1009.4 |
| 20260505175605 | 84 | 189 | 3.0 | 7.0 | 0.00 | 0.00 | 0.00 | 37 | 1009.6 |
| 20260505175104 | 84 | 141 | 3.0 | 12.0 | 0.00 | 0.00 | 0.00 | 38 | 1009.5 |
| 20260505174605 | 84 | 128 | 5.0 | 12.0 | 0.00 | 0.00 | 0.00 | 37 | 1009.5 |
| 20260505174105 | 83 | 127 | 3.0 | 12.0 | 0.00 | 0.00 | 0.00 | 38 | 1009.6 |
| 20260505173604 | 83 | 136 | 5.0 | 10.0 | 0.00 | 0.00 | 0.00 | 37 | 1009.6 |
| 20260505173105 | 84 | 216 | 4.0 | 8.0 | 0.00 | 0.00 | 0.00 | 37 | 1009.7 |
| 20260505172604 | 83 | 146 | 2.0 | 12.0 | 0.00 | 0.00 | 0.00 | 39 | 1009.7 |
| 20260505172104 | 83 | 83 | 2.0 | 8.0 | 0.00 | 0.00 | 0.00 | 39 | 1009.7 |
| 20260505171104 | 83 | 150 | 3.0 | 7.0 | 0.00 | 0.00 | 0.00 | 38 | 1009.8 |
| 20260505170604 | 83 | 111 | 3.0 | 12.0 | 0.00 | 0.00 | 0.00 | 38 | 1010.0 |
| 20260505165605 | 83 | 101 | 2.0 | 8.0 | 0.00 | 0.00 | 0.00 | 39 | 1009.9 |
| 20260505164604 | 82 | 174 | 2.0 | 3.0 | 0.00 | 0.00 | 0.00 | 40 | 1009.9 |
| 20260505164105 | 82 | 119 | 3.0 | 12.0 | 0.00 | 0.00 | 0.00 | 40 | 1009.9 |
| 20260505163604 | 82 | 105 | 2.0 | 8.0 | 0.00 | 0.00 | 0.00 | 40 | 1010.0 |
| 20260505163105 | 82 | 196 | 2.0 | 8.0 | 0.00 | 0.00 | 0.00 | 40 | 1010.0 |
| 20260505162604 | 82 | 112 | 3.0 | 7.0 | 0.00 | 0.00 | 0.00 | 40 | 1010.0 |
| 20260505161105 | 81 | 170 | 3.0 | 8.0 | 0.00 | 0.00 | 0.00 | 42 | 1010.2 |
| 20260505160604 | 81 | 196 | 3.0 | 9.0 | 0.00 | 0.00 | 0.00 | 41 | 1010.3 |
| 20260505160105 | 82 | 197 | 3.0 | 6.0 | 0.00 | 0.00 | 0.00 | 40 | 1010.4 |
| 20260505151606 | 78 | 28 | 2.0 | 3.0 | 0.00 | 0.00 | 0.00 | 42 | 1010.7 |
| 20260505151105 | 78 | 150 | 2.0 | 6.0 | 0.00 | 0.00 | 0.00 | 43 | 1010.7 |
| 20260505150105 | 78 | 148 | 2.0 | 7.0 | 0.00 | 0.00 | 0.00 | 45 | 1010.8 |
| 20260505140605 | 74 | 177 | 2.0 | 7.0 | 0.00 | 0.00 | 0.00 | 48 | 1011.2 |
| 20260505140105 | 74 | 211 | 2.0 | 3.0 | 0.00 | 0.00 | 0.00 | 48 | 1011.2 |
| 20260505130105 | 70 | 151 | 3.0 | 9.0 | 0.00 | 0.00 | 0.00 | 53 | 1011.1 |
| 20260505124606 | 68 | 197 | 1.0 | 7.0 | 0.00 | 0.00 | 0.00 | 55 | 1011.0 |
| 20260505124105 | 68 | 230 | 2.0 | 6.0 | 0.00 | 0.00 | 0.00 | 55 | 1011.1 |
| 20260505123605 | 67 | 64 | 3.0 | 6.0 | 0.00 | 0.00 | 0.00 | 56 | 1011.1 |
| 20260505123105 | 66 | 253 | 1.0 | 9.0 | 0.00 | 0.00 | 0.00 | 57 | 1011.1 |
| 20260505122605 | 66 | 179 | 1.0 | 7.0 | 0.00 | 0.00 | 0.00 | 58 | 1011.1 |
| 20260505122104 | 65 | 183 | 2.0 | 7.0 | 0.00 | 0.00 | 0.00 | 59 | 1011.1 |
| 20260505121605 | 65 | 218 | 1.0 | 7.0 | 0.00 | 0.00 | 0.00 | 60 | 1011.1 |
| 20260505121105 | 65 | 142 | 2.0 | 7.0 | 0.00 | 0.00 | 0.00 | 60 | 1011.0 |
| 20260505120604 | 64 | 157 | 0.0 | 6.0 | 0.00 | 0.00 | 0.00 | 61 | 1011.1 |
| 20260505120105 | 64 | 187 | 2.0 | 7.0 | 0.00 | 0.00 | 0.00 | 62 | 1011.1 |
| 20260505115605 | 64 | 147 | 2.0 | 9.0 | 0.00 | 0.00 | 0.00 | 63 | 1011.0 |
| 20260505115105 | 63 | 110 | 2.0 | 6.0 | 0.00 | 0.00 | 0.00 | 63 | 1011.0 |
| 20260505114605 | 63 | 214 | 1.0 | 3.0 | 0.00 | 0.00 | 0.00 | 64 | 1011.0 |
| 20260505114105 | 63 | 185 | 3.0 | 6.0 | 0.00 | 0.00 | 0.00 | 64 | 1010.8 |
| 20260505113605 | 63 | 84 | 1.0 | 7.0 | 0.00 | 0.00 | 0.00 | 64 | 1010.8 |
| 20260505112605 | 62 | 171 | 1.0 | 5.0 | 0.00 | 0.00 | 0.00 | 65 | 1010.6 |
| 20260505111605 | 62 | 172 | 1.0 | 5.0 | 0.00 | 0.00 | 0.00 | 66 | 1010.6 |
| 20260505110605 | 61 | 142 | 2.0 | 6.0 | 0.00 | 0.00 | 0.00 | 67 | 1010.7 |
| 20260505110105 | 61 | 155 | 0.0 | 2.0 | 0.00 | 0.00 | 0.00 | 67 | 1010.6 |
| 20260505101605 | 61 | 187 | 0.0 | 3.0 | 0.00 | 0.00 | 0.00 | 69 | 1010.3 |
| 20260505101104 | 61 | 211 | 1.0 | 3.0 | 0.00 | 0.00 | 0.00 | 69 | 1010.3 |
| 20260505100605 | 61 | 135 | 1.0 | 6.0 | 0.00 | 0.00 | 0.00 | 69 | 1010.2 |
| 20260505100105 | 61 | 189 | 1.0 | 3.0 | 0.00 | 0.00 | 0.00 | 69 | 1010.3 |
| 20260505094605 | 62 | 142 | 1.0 | 3.0 | 0.00 | 0.00 | 0.00 | 68 | 1010.2 |
| 20260505094105 | 62 | 104 | 1.0 | 3.0 | 0.00 | 0.00 | 0.00 | 68 | 1010.1 |
| 20260505093104 | 62 | 135 | 2.0 | 6.0 | 0.00 | 0.00 | 0.00 | 67 | 1010.2 |
| 20260505092105 | 62 | 116 | 0.0 | 3.0 | 0.00 | 0.00 | 0.00 | 67 | 1010.2 |
| 20260505091605 | 62 | 115 | 2.0 | 3.0 | 0.00 | 0.00 | 0.00 | 67 | 1010.2 |
| 20260505091105 | 62 | 120 | 1.0 | 3.0 | 0.00 | 0.00 | 0.00 | 67 | 1010.2 |
| 20260505090605 | 63 | 125 | 2.0 | 6.0 | 0.00 | 0.00 | 0.00 | 67 | 1010.2 |
| 20260505090104 | 63 | 192 | 2.0 | 8.0 | 0.00 | 0.00 | 0.00 | 66 | 1010.0 |
| 20260505084104 | 62 | 194 | 2.0 | 6.0 | 0.00 | 0.00 | 0.00 | 66 | 1010.1 |
| 20260505083604 | 62 | 127 | 1.0 | 5.0 | 0.00 | 0.00 | 0.00 | 66 | 1010.1 |
| 20260505083105 | 62 | 173 | 2.0 | 6.0 | 0.00 | 0.00 | 0.00 | 66 | 1010.1 |
| 20260505082605 | 62 | 203 | 2.0 | 3.0 | 0.00 | 0.00 | 0.00 | 67 | 1010.2 |
| 20260505082105 | 62 | 159 | 1.0 | 3.0 | 0.00 | 0.00 | 0.00 | 67 | 1010.1 |
| 20260505081605 | 62 | 125 | 1.0 | 5.0 | 0.00 | 0.00 | 0.00 | 67 | 1010.0 |
| 20260505081105 | 61 | 200 | 2.0 | 3.0 | 0.00 | 0.00 | 0.00 | 67 | 1009.9 |
| 20260505080605 | 61 | 177 | 1.0 | 2.0 | 0.00 | 0.00 | 0.00 | 67 | 1010.0 |
| 20260505080104 | 61 | 133 | 1.0 | 5.0 | 0.00 | 0.00 | 0.00 | 67 | 1010.0 |
| 20260505075604 | 61 | 116 | 2.0 | 5.0 | 0.00 | 0.00 | 0.00 | 68 | 1009.9 |
| 20260505075104 | 61 | 156 | 1.0 | 3.0 | 0.00 | 0.00 | 0.00 | 67 | 1010.0 |
| 20260505074604 | 61 | 132 | 1.0 | 3.0 | 0.00 | 0.00 | 0.00 | 67 | 1010.0 |
| 20260505074104 | 61 | 152 | 1.0 | 3.0 | 0.00 | 0.00 | 0.00 | 67 | 1009.9 |
| 20260505073604 | 61 | 147 | 1.0 | 5.0 | 0.00 | 0.00 | 0.00 | 67 | 1010.0 |
| 20260505073104 | 61 | 150 | 1.0 | 3.0 | 0.00 | 0.00 | 0.00 | 67 | 1010.0 |
| 20260505072604 | 61 | 132 | 0.0 | 5.0 | 0.00 | 0.00 | 0.00 | 67 | 1010.0 |
| 20260505072104 | 61 | 145 | 1.0 | 3.0 | 0.00 | 0.00 | 0.00 | 67 | 1010.0 |
| 20260505071604 | 61 | 119 | 1.0 | 3.0 | 0.00 | 0.00 | 0.00 | 67 | 1009.9 |
| 20260505071105 | 61 | 73 | 0.0 | 5.0 | 0.00 | 0.00 | 0.00 | 67 | 1009.9 |
| 20260505070605 | 61 | 123 | 1.0 | 3.0 | 0.00 | 0.00 | 0.00 | 67 | 1009.9 |
| 20260505070104 | 61 | 107 | 1.0 | 3.0 | 0.00 | 0.00 | 0.00 | 67 | 1009.9 |
| 20260505065604 | 61 | 184 | 1.0 | 3.0 | 0.00 | 0.00 | 0.00 | 67 | 1009.9 |
| 20260505065104 | 61 | 135 | 0.0 | 3.0 | 0.00 | 0.00 | 0.00 | 66 | 1009.8 |
| 20260505064605 | 61 | 110 | 1.0 | 5.0 | 0.00 | 0.00 | 0.00 | 66 | 1009.8 |
| 20260505064105 | 61 | 148 | 1.0 | 3.0 | 0.00 | 0.00 | 0.00 | 66 | 1009.8 |
| 20260505063605 | 61 | 152 | 0.0 | 3.0 | 0.00 | 0.00 | 0.00 | 65 | 1009.8 |
| 20260505063104 | 62 | 109 | 1.0 | 2.0 | 0.00 | 0.00 | 0.00 | 64 | 1009.8 |
| 20260505062605 | 62 | 174 | 0.0 | 3.0 | 0.00 | 0.00 | 0.00 | 64 | 1009.8 |
| 20260505062104 | 62 | 140 | 1.0 | 7.0 | 0.00 | 0.00 | 0.00 | 63 | 1009.9 |
| 20260505061604 | 62 | 136 | 1.0 | 3.0 | 0.00 | 0.00 | 0.00 | 63 | 1009.9 |
| 20260505061105 | 62 | 196 | 1.0 | 6.0 | 0.00 | 0.00 | 0.00 | 63 | 1009.9 |
| 20260505060604 | 62 | 124 | 1.0 | 5.0 | 0.00 | 0.00 | 0.00 | 62 | 1009.9 |
| 20260505060104 | 62 | 155 | 1.0 | 3.0 | 0.00 | 0.00 | 0.00 | 62 | 1009.9 |
| 20260505055604 | 62 | 134 | 1.0 | 3.0 | 0.00 | 0.00 | 0.00 | 62 | 1009.9 |
| 20260505055104 | 62 | 138 | 1.0 | 3.0 | 0.00 | 0.00 | 0.00 | 62 | 1010.0 |
| 20260505054604 | 62 | 117 | 1.0 | 3.0 | 0.00 | 0.00 | 0.00 | 62 | 1010.0 |
| 20260505054104 | 62 | 124 | 1.0 | 3.0 | 0.00 | 0.00 | 0.00 | 62 | 1010.1 |
| 20260505053605 | 63 | 107 | 1.0 | 3.0 | 0.00 | 0.00 | 0.00 | 61 | 1010.2 |
| 20260505053104 | 63 | 115 | 2.0 | 6.0 | 0.00 | 0.00 | 0.00 | 61 | 1010.1 |
| 20260505052605 | 62 | 110 | 1.0 | 5.0 | 0.00 | 0.00 | 0.00 | 61 | 1010.1 |
| 20260505052105 | 62 | 160 | 1.0 | 3.0 | 0.00 | 0.00 | 0.00 | 61 | 1010.1 |
| 20260505051605 | 63 | 174 | 1.0 | 3.0 | 0.00 | 0.00 | 0.00 | 61 | 1010.1 |
| 20260505051105 | 62 | 173 | 1.0 | 7.0 | 0.00 | 0.00 | 0.00 | 61 | 1010.1 |
| 20260505050605 | 62 | 124 | 1.0 | 7.0 | 0.00 | 0.00 | 0.00 | 61 | 1010.0 |
| 20260505050104 | 62 | 109 | 1.0 | 3.0 | 0.00 | 0.00 | 0.00 | 61 | 1010.0 |
| 20260505041604 | 62 | 145 | 2.0 | 7.0 | 0.00 | 0.00 | 0.00 | 60 | 1010.1 |
| 20260505041105 | 62 | 123 | 1.0 | 5.0 | 0.00 | 0.00 | 0.00 | 60 | 1010.1 |
| 20260505040604 | 63 | 139 | 1.0 | 8.0 | 0.00 | 0.00 | 0.00 | 60 | 1010.2 |
| 20260505040105 | 63 | 127 | 1.0 | 6.0 | 0.00 | 0.00 | 0.00 | 60 | 1010.2 |
| 20260505035604 | 63 | 154 | 3.0 | 8.0 | 0.00 | 0.00 | 0.00 | 60 | 1010.1 |
| 20260505034604 | 62 | 141 | 2.0 | 5.0 | 0.00 | 0.00 | 0.00 | 61 | 1010.1 |
| 20260505033604 | 62 | 128 | 2.0 | 7.0 | 0.00 | 0.00 | 0.00 | 60 | 1010.1 |
| 20260505033105 | 63 | 134 | 1.0 | 6.0 | 0.00 | 0.00 | 0.00 | 60 | 1010.0 |
| 20260505032605 | 63 | 118 | 2.0 | 10.0 | 0.00 | 0.00 | 0.00 | 60 | 1010.1 |
| 20260505032105 | 62 | 120 | 2.0 | 8.0 | 0.00 | 0.00 | 0.00 | 60 | 1009.9 |
| 20260505031606 | 63 | 85 | 2.0 | 7.0 | 0.00 | 0.00 | 0.00 | 60 | 1010.0 |
| 20260505031105 | 63 | 123 | 1.0 | 5.0 | 0.00 | 0.00 | 0.00 | 60 | 1010.1 |
| 20260505030605 | 63 | 172 | 1.0 | 7.0 | 0.00 | 0.00 | 0.00 | 60 | 1010.2 |
| 20260505025605 | 63 | 94 | 1.0 | 5.0 | 0.00 | 0.00 | 0.00 | 59 | 1010.3 |
| 20260505025105 | 63 | 145 | 2.0 | 6.0 | 0.00 | 0.00 | 0.00 | 59 | 1010.4 |
| 20260505024605 | 63 | 138 | 1.0 | 6.0 | 0.00 | 0.00 | 0.00 | 59 | 1010.4 |
| 20260505024105 | 63 | 134 | 1.0 | 6.0 | 0.00 | 0.00 | 0.00 | 58 | 1010.4 |
| 20260505023605 | 63 | 134 | 2.0 | 7.0 | 0.00 | 0.00 | 0.00 | 57 | 1010.4 |
| 20260505023105 | 63 | 109 | 1.0 | 3.0 | 0.00 | 0.00 | 0.00 | 57 | 1010.4 |
| 20260505022604 | 63 | 142 | 1.0 | 7.0 | 0.00 | 0.00 | 0.00 | 56 | 1010.4 |
| 20260505022104 | 63 | 133 | 1.0 | 3.0 | 0.00 | 0.00 | 0.00 | 56 | 1010.4 |
| 20260505021105 | 63 | 126 | 3.0 | 7.0 | 0.00 | 0.00 | 0.00 | 54 | 1010.4 |
| 20260505020605 | 63 | 124 | 2.0 | 6.0 | 0.00 | 0.00 | 0.00 | 53 | 1010.4 |
| 20260505020105 | 63 | 132 | 2.0 | 7.0 | 0.00 | 0.00 | 0.00 | 53 | 1010.4 |
| 20260505015105 | 63 | 140 | 2.0 | 5.0 | 0.00 | 0.00 | 0.00 | 51 | 1010.4 |
| 20260505014604 | 63 | 116 | 1.0 | 3.0 | 0.00 | 0.00 | 0.00 | 51 | 1010.4 |
| 20260505013605 | 64 | 127 | 0.0 | 2.0 | 0.00 | 0.00 | 0.00 | 50 | 1010.4 |
| 20260505013105 | 64 | 123 | 1.0 | 3.0 | 0.00 | 0.00 | 0.00 | 49 | 1010.4 |
| 20260505012605 | 64 | 128 | 0.0 | 3.0 | 0.00 | 0.00 | 0.00 | 48 | 1010.3 |
| 20260505012105 | 64 | 121 | 0.0 | 3.0 | 0.00 | 0.00 | 0.00 | 48 | 1010.2 |
| 20260505011606 | 65 | 129 | 1.0 | 2.0 | 0.00 | 0.00 | 0.00 | 47 | 1010.2 |
| 20260505011105 | 65 | 121 | 0.0 | 2.0 | 0.00 | 0.00 | 0.00 | 47 | 1010.2 |
| 20260505010604 | 65 | 123 | 1.0 | 2.0 | 0.00 | 0.00 | 0.00 | 46 | 1010.1 |
| 20260505010105 | 65 | 79 | 1.0 | 3.0 | 0.00 | 0.00 | 0.00 | 46 | 1010.0 |
| 20260505005605 | 66 | 142 | 2.0 | 5.0 | 0.00 | 0.00 | 0.00 | 45 | 1010.0 |
| 20260505004105 | 66 | 132 | 1.0 | 3.0 | 0.00 | 0.00 | 0.00 | 44 | 1009.8 |
| 20260505003104 | 67 | 126 | 2.0 | 3.0 | 0.00 | 0.00 | 0.00 | 43 | 1009.7 |
| 20260505002606 | 67 | 128 | 1.0 | 3.0 | 0.00 | 0.00 | 0.00 | 43 | 1009.7 |
| 20260505001105 | 68 | 118 | 1.0 | 2.0 | 0.00 | 0.00 | 0.00 | 41 | 1009.6 |
| 20260505000605 | 68 | 115 | 1.0 | 2.0 | 0.00 | 0.00 | 0.00 | 41 | 1009.5 |
| 20260505000105 | 68 | 98 | 0.0 | 3.0 | 0.00 | 0.00 | 0.00 | 41 | 1009.5 |
| 20260504235605 | 69 | 120 | 1.0 | 3.0 | 0.00 | 0.00 | 0.00 | 40 | 1009.5 |
| 20260504235105 | 69 | 112 | 0.0 | 2.0 | 0.00 | 0.00 | 0.00 | 39 | 1009.5 |
| 20260504234604 | 69 | 91 | 0.0 | 2.0 | 0.00 | 0.00 | 0.00 | 38 | 1009.4 |
| 20260504234104 | 70 | 141 | 1.0 | 3.0 | 0.00 | 0.00 | 0.00 | 38 | 1009.4 |
| 20260504233105 | 70 | 120 | 0.0 | 3.0 | 0.00 | 0.00 | 0.00 | 38 | 1009.3 |
| 20260504232606 | 71 | 115 | 1.0 | 3.0 | 0.00 | 0.00 | 0.00 | 37 | 1009.3 |
| 20260504232104 | 71 | 155 | 1.0 | 5.0 | 0.00 | 0.00 | 0.00 | 37 | 1009.3 |
| 20260504231604 | 71 | 181 | 2.0 | 10.0 | 0.00 | 0.00 | 0.00 | 36 | 1009.3 |
| 20260504231104 | 71 | 136 | 2.0 | 8.0 | 0.00 | 0.00 | 0.00 | 36 | 1009.3 |
| 20260504230605 | 72 | 64 | 1.0 | 5.0 | 0.00 | 0.00 | 0.00 | 36 | 1009.3 |
| 20260504230104 | 72 | 133 | 1.0 | 9.0 | 0.00 | 0.00 | 0.00 | 35 | 1009.3 |
| 20260504225605 | 72 | 140 | 1.0 | 6.0 | 0.00 | 0.00 | 0.00 | 36 | 1009.3 |
| 20260504225105 | 72 | 207 | 1.0 | 2.0 | 0.00 | 0.00 | 0.00 | 35 | 1009.3 |
| 20260504224605 | 72 | 143 | 2.0 | 5.0 | 0.00 | 0.00 | 0.00 | 34 | 1009.3 |
| 20260504224105 | 72 | 193 | 1.0 | 3.0 | 0.00 | 0.00 | 0.00 | 34 | 1009.2 |
| 20260504223605 | 73 | 151 | 2.0 | 13.0 | 0.00 | 0.00 | 0.00 | 34 | 1009.2 |
| 20260504223105 | 73 | 124 | 3.0 | 8.0 | 0.00 | 0.00 | 0.00 | 33 | 1009.2 |
| 20260504222605 | 73 | 196 | 3.0 | 6.0 | 0.00 | 0.00 | 0.00 | 34 | 1009.3 |
| 20260504222105 | 73 | 168 | 2.0 | 5.0 | 0.00 | 0.00 | 0.00 | 33 | 1009.3 |
| 20260504221104 | 74 | 177 | 3.0 | 9.0 | 0.00 | 0.00 | 0.00 | 32 | 1009.3 |
| 20260504220604 | 74 | 70 | 2.0 | 7.0 | 0.00 | 0.00 | 0.00 | 32 | 1009.4 |
| 20260504220105 | 75 | 187 | 2.0 | 8.0 | 0.00 | 0.00 | 0.00 | 32 | 1009.4 |
| 20260504215605 | 75 | 147 | 3.0 | 9.0 | 0.00 | 0.00 | 0.00 | 31 | 1009.4 |
| 20260504215105 | 75 | 166 | 2.0 | 3.0 | 0.00 | 0.00 | 0.00 | 31 | 1009.3 |
| 20260504214605 | 74 | 103 | 2.0 | 8.0 | 0.00 | 0.00 | 0.00 | 32 | 1009.4 |
| 20260504214105 | 74 | 184 | 5.0 | 10.0 | 0.00 | 0.00 | 0.00 | 31 | 1009.4 |
| 20260504213604 | 75 | 170 | 4.0 | 7.0 | 0.00 | 0.00 | 0.00 | 30 | 1009.4 |
| 20260504213104 | 75 | 196 | 2.0 | 7.0 | 0.00 | 0.00 | 0.00 | 32 | 1009.4 |
| 20260504212605 | 75 | 171 | 2.0 | 6.0 | 0.00 | 0.00 | 0.00 | 32 | 1009.4 |
| 20260504211605 | 75 | 232 | 4.0 | 9.0 | 0.00 | 0.00 | 0.00 | 31 | 1009.3 |
| 20260504211104 | 75 | 158 | 3.0 | 6.0 | 0.00 | 0.00 | 0.00 | 31 | 1009.3 |
| 20260504204605 | 75 | 186 | 4.0 | 10.0 | 0.00 | 0.00 | 0.00 | 31 | 1009.4 |
| 20260504204104 | 75 | 187 | 5.0 | 10.0 | 0.00 | 0.00 | 0.00 | 30 | 1009.5 |
| 20260504203604 | 75 | 311 | 3.0 | 6.0 | 0.00 | 0.00 | 0.00 | 31 | 1009.4 |
| 20260504203105 | 75 | 196 | 3.0 | 7.0 | 0.00 | 0.00 | 0.00 | 31 | 1009.4 |
| 20260504202605 | 74 | 168 | 3.0 | 12.0 | 0.00 | 0.00 | 0.00 | 31 | 1009.3 |
| 20260504202105 | 75 | 146 | 3.0 | 9.0 | 0.00 | 0.00 | 0.00 | 31 | 1009.4 |
| 20260504201605 | 75 | 137 | 3.0 | 12.0 | 0.00 | 0.00 | 0.00 | 32 | 1009.4 |
| 20260504201104 | 74 | 182 | 3.0 | 12.0 | 0.00 | 0.00 | 0.00 | 30 | 1009.5 |
| 20260504200604 | 74 | 179 | 3.0 | 12.0 | 0.00 | 0.00 | 0.00 | 31 | 1009.5 |
| 20260504200105 | 74 | 157 | 4.0 | 8.0 | 0.00 | 0.00 | 0.00 | 31 | 1009.5 |
| 20260504195605 | 74 | 172 | 4.0 | 12.0 | 0.00 | 0.00 | 0.00 | 30 | 1009.6 |
| 20260504195106 | 74 | 163 | 3.0 | 12.0 | 0.00 | 0.00 | 0.00 | 31 | 1009.7 |
| 20260504194605 | 74 | 203 | 3.0 | 9.0 | 0.00 | 0.00 | 0.00 | 30 | 1009.8 |
| 20260504194104 | 74 | 40 | 2.0 | 10.0 | 0.00 | 0.00 | 0.00 | 31 | 1009.8 |
| 20260504193605 | 75 | 150 | 3.0 | 10.0 | 0.00 | 0.00 | 0.00 | 31 | 1010.0 |
| 20260504193105 | 75 | 180 | 3.0 | 7.0 | 0.00 | 0.00 | 0.00 | 33 | 1010.0 |
| 20260504192605 | 74 | 160 | 2.0 | 6.0 | 0.00 | 0.00 | 0.00 | 31 | 1010.0 |
| 20260504192104 | 74 | 281 | 3.0 | 8.0 | 0.00 | 0.00 | 0.00 | 35 | 1010.1 |
| 20260504191604 | 74 | 96 | 3.0 | 12.0 | 0.00 | 0.00 | 0.00 | 30 | 1010.1 |
| 20260504191104 | 74 | 168 | 4.0 | 12.0 | 0.00 | 0.00 | 0.00 | 31 | 1010.2 |
| 20260504190604 | 74 | 169 | 2.0 | 9.0 | 0.00 | 0.00 | 0.00 | 33 | 1010.3 |
| 20260504190104 | 74 | 36 | 3.0 | 12.0 | 0.00 | 0.00 | 0.00 | 32 | 1010.3 |
| 20260504185605 | 73 | 193 | 4.0 | 10.0 | 0.00 | 0.00 | 0.00 | 31 | 1010.4 |
| 20260504185105 | 73 | 207 | 3.0 | 8.0 | 0.00 | 0.00 | 0.00 | 31 | 1010.4 |
| 20260504184604 | 74 | 169 | 3.0 | 10.0 | 0.00 | 0.00 | 0.00 | 31 | 1010.6 |
| 20260504184104 | 74 | 214 | 3.0 | 9.0 | 0.00 | 0.00 | 0.00 | 33 | 1010.7 |
| 20260504183604 | 73 | 172 | 2.0 | 5.0 | 0.00 | 0.00 | 0.00 | 34 | 1010.7 |
| 20260504183105 | 73 | 188 | 3.0 | 8.0 | 0.00 | 0.00 | 0.00 | 31 | 1010.8 |
| 20260504182604 | 73 | 153 | 3.0 | 9.0 | 0.00 | 0.00 | 0.00 | 33 | 1011.0 |
| 20260504182104 | 73 | 194 | 4.0 | 12.0 | 0.00 | 0.00 | 0.00 | 32 | 1011.1 |
| 20260504181604 | 73 | 180 | 3.0 | 12.0 | 0.00 | 0.00 | 0.00 | 33 | 1011.1 |